Flag for Switzerland Weather past 2 weeks in Sarnen, Obwalden, Switzerland

Now
61 °F

Cool.


Feels Like: 61 °F
Forecast: 53 / 64 °F
Wind: 3 mph from Southwest

Location: Giswil

Current Time: Sep 2, 2015 at 7:56:00 PM

Latest Report: Sep 2, 2015 at 7:00 PM


Visibility: N/A

Pressure: 29.99 "Hg

Humidity: 92%

Dew point: 58 °F

Location of SarnenLocation

Historic Weather in Sarnen — Graph

°F

Sarnen temperature yesterday

Maximum temperature yesterday: 74 °F (at 12:00 PM)
Minimum temperature yesterday: 58 °F (at 3:00 AM)
Average temperature yesterday: 64 °F

Past Weeks' High & Low Weather Summary

 TemperatureHumidityPressure
High89 °F (Aug 30, 3:00 PM)100% (Aug 21, 3:00 AM)30.29 "Hg (Aug 21, 3:00 AM)
Low47 °F (Aug 20, 7:00 AM)31% (Aug 30, 4:00 PM)29.70 "Hg (Aug 24, 2:00 PM)
Average64 °F80%30.03 "Hg
* Reported Aug 18 6:00 PM — Sep 2 6:00 PM, Sarnen, Weather by CustomWeather, © 2015

Note: Actual official high and low records may vary slightly from our data, if they occured in-between our weather recording intervals... More about our weather records

Advertising

Sarnen weather history for previous 24 hours

 ConditionsComfort  
Time TempWeatherWind HumidityBarometerVisibility
6:00 PM
Wed, Sep 2
62 °FCool.3 mph86%29.99 "HgN/A
5:00 PM64 °FMild.2 mph80%29.98 "HgN/A
4:00 PM65 °FMild.1 mph77%29.96 "HgN/A
3:00 PM67 °FMild.3 mph67%29.96 "HgN/A
2:00 PM67 °FMild.5 mph67%29.96 "HgN/A
1:00 PM66 °FMild.3 mph71%29.97 "HgN/A
12:00 PM65 °FMild.2 mph67%29.99 "HgN/A
11:00 AM64 °FMild.2 mph75%29.99 "HgN/A
10:40 AM63 °FMild.2 mph77%30.00 "HgN/A
10:00 AM62 °FCool.1 mph81%30.01 "HgN/A
9:00 AM59 °FCool.1 mph90%30.03 "HgN/A
8:00 AM58 °FCool.1 mph97%30.04 "HgN/A
7:00 AM57 °FCool.1 mph99%30.04 "HgN/A
5:00 AM57 °FCool.2 mph99%30.07 "HgN/A
4:00 AM57 °FCool.3 mph95%30.08 "HgN/A
3:00 AM59 °FCool.2 mph99%30.07 "HgN/A
2:00 AM59 °FCool.1 mph99%30.07 "HgN/A
1:00 AM60 °FCool.2 mph100%30.08 "HgN/A
12:00 AM60 °FCool.No wind99%30.08 "HgN/A
10:00 PM
Tue, Sep 1
62 °FCool.2 mph95%30.06 "HgN/A
9:00 PM63 °FMild.5 mph91%30.05 "HgN/A
8:00 PM64 °FMild.5 mph93%30.02 "HgN/A
7:00 PM65 °FMild.2 mph97%29.99 "HgN/A
Weather by CustomWeather, © 2015

See weather overviewHow to use our weather pages